Date String (YYYY-MM-DD hh:mm:ss) UTC,Instrument flags,absolute air pressure of the measurement (hPa),sample flow rate (lpm),inlet stack bypass flow (lpm),air temperature of the measurement (°C),ambient temperature measured by the external sensor (°C),aerosol sample conditioner tube jacket temperature (°C),OPC LED temperature (°C),internal box temperature (°C),relative humidity of the measurement (%),span deviation,mass concentration of particles derived from Lorenz-Mie calculation of OPC scattering (μg/m³),mass concentration of particles derived from Lorenz-Mie calculation of OPC scattering (μg/m³),mass concentration of particles derived from Lorenz-Mie calculation of OPC scattering (μg/m³)
DateTimeUTC,F1_M11,P_M11,Q1_M11,Q2_M11,T1_M11,T2_M11,T3_M11,T4_M11,T5_M11,U1_M11,ZSPAN_M11,X0_M11,X2_M11,X1_M11
2023-09-12 09:00:00,SystemResetWarning,0835.4,5.00,000.00,029.2,027.7,000.0,037.5,030.8,24.6,0000.6,0009.28,0005.35,0004.99
2023-09-12 09:01:00,SystemResetWarning,0835.3,5.00,000.00,029.2,027.7,000.0,037.5,030.8,24.5,-000.0,0009.33,0005.36,0004.99
2023-09-12 09:02:00,SystemResetWarning,0835.3,5.00,000.00,029.2,027.7,000.0,037.5,030.8,24.6,-000.2,0009.30,0005.38,0005.00
2023-09-12 09:03:00,SystemResetWarning,0835.4,5.00,000.00,029.2,027.8,000.0,037.5,030.8,24.7,0000.3,0009.39,0005.43,0005.02
2023-09-12 09:04:00,SystemResetWarning,0835.3,5.00,000.00,029.2,027.8,000.0,037.5,030.8,24.8,0001.0,0009.45,0005.49,0005.07
2023-09-12 09:05:00,SystemResetWarning,0835.3,5.00,000.00,029.2,027.8,000.0,037.5,030.8,24.8,0001.3,0009.65,0005.59,0005.16
2023-09-12 09:06:00,SystemResetWarning,0835.3,5.00,000.00,029.3,027.8,000.0,037.5,030.8,24.9,0001.2,0009.78,0005.71,0005.25
2023-09-12 09:07:00,SystemResetWarning,0835.4,5.00,000.00,029.3,027.8,000.0,037.6,030.8,24.9,0001.0,0010.59,0005.85,0005.34
2023-09-12 09:08:00,SystemResetWarning,0835.4,5.01,000.00,029.3,027.8,000.0,037.5,030.8,25.0,0001.3,0011.17,0005.96,0005.43
2023-09-12 09:09:00,SystemResetWarning,0835.4,5.01,000.00,029.3,027.8,000.0,037.6,030.8,25.0,0001.1,0011.01,0006.05,0005.51
2023-09-12 09:10:00,SystemResetWarning,0835.3,4.99,000.00,029.3,027.8,000.0,037.6,030.8,24.9,0000.6,0011.13,0006.12,0005.57
2023-09-12 09:11:00,SystemResetWarning,0835.2,5.00,000.00,029.3,027.8,000.0,037.6,030.9,24.8,0000.2,0010.76,0006.16,0005.61
2023-09-12 09:12:00,SystemResetWarning,0835.2,4.99,000.00,029.3,027.8,000.0,037.6,030.9,24.7,0000.5,0010.66,0006.19,0005.64
2023-09-12 09:13:00,SystemResetWarning,0835.2,5.00,000.00,029.3,027.8,000.0,037.6,030.8,24.6,0000.3,0010.59,0006.18,0005.65
2023-09-12 09:14:00,SystemResetWarning,0835.2,5.01,000.00,029.3,027.8,000.0,037.6,030.9,24.8,-000.4,0010.51,0006.16,0005.64
2023-09-12 09:15:00,SystemResetWarning,0835.2,5.00,000.00,029.3,027.8,000.0,037.6,030.8,24.8,-000.7,0010.44,0006.11,0005.61
2023-09-12 09:16:00,SystemResetWarning,0835.2,5.01,000.00,029.3,027.8,000.0,037.6,030.8,24.9,-000.7,0010.23,0006.03,0005.55
2023-09-12 09:17:00,SystemResetWarning,0835.2,5.00,000.00,029.3,027.8,000.0,037.6,030.8,25.0,-000.9,0010.07,0005.93,0005.48
2023-09-12 09:18:00,SystemResetWarning,0835.3,5.00,000.00,029.3,027.8,000.0,037.6,030.8,25.2,-001.3,0009.44,0005.80,0005.39
2023-09-12 09:19:00,SystemResetWarning,0835.3,5.00,000.00,029.3,027.8,000.0,037.6,030.9,25.2,-001.6,0008.76,0005.69,0005.30
2023-09-12 09:20:00,SystemResetWarning,0835.3,5.00,000.00,029.3,027.8,000.0,037.6,030.9,25.2,-001.7,0008.69,0005.61,0005.23
2023-09-12 09:21:00,SystemResetWarning,0835.2,5.00,000.00,029.3,027.8,000.0,037.6,030.8,25.3,-001.4,0009.05,0005.65,0005.22
2023-09-12 09:22:00,SystemResetWarning,0835.2,5.00,000.00,029.3,027.8,000.0,037.6,030.8,25.5,-001.4,0009.39,0005.71,0005.25
2023-09-12 09:23:00,SystemResetWarning,0835.2,5.00,000.00,029.3,027.8,000.0,037.6,030.8,25.4,-001.5,0009.57,0005.73,0005.27
2023-09-12 09:24:00,SystemResetWarning,0835.2,5.01,000.00,029.3,027.8,000.0,037.6,030.8,25.5,-001.5,0009.86,0005.80,0005.31
2023-09-12 09:25:00,SystemResetWarning,0835.3,5.00,000.00,029.3,027.8,000.0,037.6,030.8,25.7,-001.6,0010.04,0005.86,0005.35
2023-09-12 09:26:00,SystemResetWarning,0835.3,5.00,000.00,029.3,027.8,000.0,037.6,030.8,25.9,-001.3,0010.67,0005.93,0005.40
2023-09-12 09:27:00,SystemResetWarning,0835.3,5.00,000.00,029.3,027.8,000.0,037.6,030.8,25.9,-001.6,0011.30,0005.96,0005.44
2023-09-12 09:28:00,SystemResetWarning,0835.3,4.99,000.00,029.3,027.8,000.0,037.6,030.8,25.9,-001.6,0011.41,0005.94,0005.42
2023-09-12 09:29:00,SystemResetWarning,0835.3,5.00,000.00,029.3,027.7,000.0,037.6,030.8,25.9,-001.4,0011.28,0005.91,0005.40
2023-09-12 09:30:00,SystemResetWarning,0835.2,5.00,000.00,029.3,027.7,000.0,037.6,030.8,25.8,-001.6,0011.23,0005.91,0005.40
2023-09-12 09:31:00,SystemResetWarning,0835.3,5.00,000.00,029.3,027.7,000.0,037.6,030.8,25.8,-001.7,0011.27,0005.92,0005.40
2023-09-12 09:32:00,SystemResetWarning,0835.3,5.00,000.00,029.3,027.7,000.0,037.6,030.8,25.6,-001.8,0010.99,0005.84,0005.36
2023-09-12 09:33:00,SystemResetWarning,0835.3,5.00,000.00,029.3,027.7,000.0,037.6,030.8,25.4,-002.1,0010.46,0005.69,0005.27
2023-09-12 09:34:00,SystemResetWarning,0835.2,4.99,000.00,029.3,027.7,000.0,037.6,030.8,25.3,-002.1,0010.22,0005.59,0005.19
2023-09-12 09:35:00,SystemResetWarning,0835.3,5.00,000.00,029.3,027.7,000.0,037.6,030.8,25.1,-001.9,0009.83,0005.45,0005.08
2023-09-12 09:36:00,SystemResetWarning,0835.2,5.00,000.00,029.3,027.7,000.0,037.6,030.8,24.8,-001.7,0009.63,0005.33,0005.00
2023-09-12 09:37:00,SystemResetWarning,0835.3,5.00,000.00,029.3,027.7,000.0,037.6,030.8,24.8,-001.9,0009.03,0005.23,0004.90
2023-09-12 09:38:00,SystemResetWarning,0835.3,5.00,000.00,029.3,027.7,000.0,037.6,030.8,24.8,-002.1,0008.48,0005.15,0004.83
2023-09-12 09:39:00,SystemResetWarning,0835.3,5.00,000.00,029.3,027.7,000.0,037.6,030.8,24.8,-002.2,0008.26,0005.15,0004.81
2023-09-12 09:40:00,SystemResetWarning,0835.3,5.00,000.00,029.3,027.7,000.0,037.6,030.7,24.9,-002.2,0008.28,0005.16,0004.82
2023-09-12 09:41:00,SystemResetWarning,0835.3,5.00,000.00,029.3,027.7,000.0,037.6,030.7,25.0,-002.0,0008.33,0005.18,0004.82
2023-09-12 09:42:00,SystemResetWarning,0835.3,5.00,000.00,029.2,027.7,000.0,037.6,030.7,25.3,-002.1,0008.21,0005.16,0004.82
2023-09-12 09:43:00,SystemResetWarning,0835.2,5.00,000.00,029.2,027.7,000.0,037.6,030.7,25.5,-002.0,0008.30,0005.20,0004.84
2023-09-12 09:44:00,SystemResetWarning,0835.2,5.00,000.00,029.2,027.7,000.0,037.6,030.7,25.5,-001.8,0008.51,0005.27,0004.87
2023-09-12 09:45:00,SystemResetWarning,0835.2,5.00,000.00,029.2,027.7,000.0,037.6,030.8,25.5,-002.3,0008.43,0005.26,0004.88
2023-09-12 09:46:00,SystemResetWarning,0835.2,5.00,000.00,029.2,027.7,000.0,037.6,030.8,25.5,-002.6,0008.42,0005.27,0004.89
2023-09-12 09:47:00,SystemResetWarning,0835.1,5.00,000.00,029.2,027.7,000.0,037.6,030.7,25.4,-002.8,0008.37,0005.27,0004.89
2023-09-12 09:48:00,SystemResetWarning,0835.1,5.00,000.00,029.2,027.7,000.0,037.6,030.7,25.4,-003.2,0008.28,0005.27,0004.91
2023-09-12 09:49:00,SystemResetWarning,0835.2,5.00,000.00,029.2,027.7,000.0,037.6,030.7,25.4,-002.9,0008.31,0005.31,0004.92
2023-09-12 09:50:00,SystemResetWarning,0835.1,5.00,000.00,029.2,027.7,000.0,037.6,030.7,25.4,-002.8,0008.23,0005.32,0004.94
2023-09-12 09:51:00,SystemResetWarning,0835.1,5.00,000.00,029.2,027.7,000.0,037.6,030.7,25.4,-002.6,0008.21,0005.32,0004.95
2023-09-12 09:52:00,SystemResetWarning,0835.2,5.00,000.00,029.2,027.7,000.0,037.6,030.7,25.4,-002.2,0008.33,0005.35,0004.98
2023-09-12 09:53:00,SystemResetWarning,0835.1,5.00,000.00,029.2,027.7,000.0,037.6,030.7,25.4,-000.8,0008.55,0005.40,0005.01
2023-09-12 09:54:00,SystemResetWarning,0835.1,4.99,000.00,029.2,027.7,000.0,037.6,030.7,25.4,-002.2,0008.58,0005.44,0005.04
2023-09-12 09:55:00,SystemResetWarning,0835.2,5.00,000.00,029.2,027.7,000.0,037.6,030.7,25.4,-001.9,0008.66,0005.50,0005.07
2023-09-12 09:56:00,SystemResetWarning,0835.1,5.00,000.00,029.2,027.7,000.0,037.6,030.7,25.5,-001.8,0008.81,0005.59,0005.11
2023-09-12 09:57:00,SystemResetWarning,0835.1,5.00,000.00,029.2,027.7,000.0,037.6,030.7,25.6,-001.8,0008.93,0005.67,0005.17
2023-09-12 09:58:00,SystemResetWarning,0835.1,5.00,000.00,029.2,027.7,000.0,037.6,030.7,25.6,-001.6,0009.07,0005.76,0005.23
2023-09-12 09:59:00,SystemResetWarning,0835.2,4.99,000.00,029.2,027.7,000.0,037.6,030.7,25.6,-001.3,0009.17,0005.81,0005.28
